STARLINK-34600, 64699

Orbit data source: Space-Track

STARLINK-34600, 64699 is a payload satellite owned by SpaceX/Seattle (US) in LEO that was launched on Sat, 28 Jun 2025 UTC via an FALCON 9 launch vehicle from the Air Force Western Test Range (AFWTR). Payload-class satellites include a variety of spacecraft equipped with specific instruments for various scientific and technological missions. These include communications satellites like Starlink; space stations such as the ISS; scientific satellites like the Hubble; Earth observation satellites from companies like Planet Labs, Umbra, and HawkEye 360; GPS; miniature CubeSats for education and research; and military/defense satellites.

Loading next visibility...
Identifier
64699, 2025-142D
Orbit
LEO
Country
Flag of USUS
Related business
Manufacturer
SpaceX/Seattle
Mission
Operational Commercial Communications
Bus & Motor
STARLINK V2MO, Unknown motor
Mass
575 kg wet, ~530 kg dry
Launch date (UTC)
2025-06-28 (11 months ago)
Launch vehicle
FALCON 9
Launch site
Air Force Western Test Range (AFWTR)
Object type
Payload
Rocket body
Debris
Shape & HBR
Box + 2 Pan, 17.7 m
Radar Cross Section
36.964 m², Large (>1 m²)

Expand to show TLE details & history
Last TLE update: 9 hours ago

TLE from 9 hours ago
0 STARLINK-34600
1 64699U 25142D   26145.36715411  .00002290  00000-0  19959-3 0  9993
2 64699  70.0011 121.2073 0004193 262.9251  97.1431 14.98342013 50965
Epoch: 2026-05-25T08:48Z
TLE epoch observation values (Epoch: 2026-05-25T08:48:42.115Z)
Latitude
-0.00003°
Longitude
106.07584°
Altitude
574.806 km
Speed
7.573 km/s
True Right ascension
08h 04m 49s
True Declination
0° 00' 00"
Sunlit
Object was in daylight at epoch
Visualization orbit readout
Latitude
Unknown
Longitude
Unknown
Altitude
Unknown
Speed
Unknown
Apparent Right ascension
Unknown
Apparent Declination
Unknown
Sunlit
N/A
Visualization observer readout
Local Sidereal Time
03:09:56
Azimuth
Unknown
Elevation
Unknown
Doppler factor
Unknown
Orbital elements
Apogee altitude
572.88 km
Perigee altitude
567.054 km
Semi-major axis
6,948.104 km
Eccentricity
0.00042
Inclination
70.0011°
RAAN
121.2073°
Arg. of periapsis
262.9251°
True anomaly
97.19077°
Mean anomaly
97.1431°
Eccentric anomaly
97.16694°
Mean motion
3.74752 °/min
Orbital period
96.06 mins
BSTAR
0.00019959
Loading maneuver chart data...
Computing Atmospheric mass density...
Loading historical data...
Loading historical data...
Loading historical data...
Loading historical data...
Loading historical data...
Loading historical data...
Loading historical data...

Documentation

Showing up to 5 results
|